Location: Ferintosh
(52.7647°N, 112.9692°W)
Time: 22:32:01
(UTC+00:00)

A-11 Canister half - Pass Details

Date: 21 May 2024
Orbit: 1524 x 1683 km, 47.3° (Epoch: 19 June)

Event Time Altitude Azimuth Distance (km) Brightness Sun altitude
Rises 03:18:59 0° 184° (S) 4,673 11.2 0.7°
Reaches altitude 10° 03:23:17 10° 167° (SSE) 3,711 10.6 0.2°
Maximum altitude 03:28:56 18° 129° (SE) 3,162 10.1 -0.5°
Drops below altitude 10° 03:34:39 10° 91° (E) 3,786 10.6 -1.2°
Sets 03:39:05 0° 75° (ENE) 4,804 11.2 -1.7°
